Home   Weather   Kufstein   Past weeks

Flag for Austria Past Weather in Kufstein, Tyrol, Austria — Yesterday and Last 2 Weeks

Now
69 °F

Mild.


Feels Like: 69 °F
Forecast: 49 / 75 °F
Wind: 2 mph from Northeast

Location: Kufstein

Current Time: Sep 28, 2016 at 7:06:03 PM

Latest Report: Sep 28, 2016 at 6:00 PM


Visibility: N/A

Pressure: 30.32 "Hg

Humidity: 56%

Dew Point: 52 °F

Location of KufsteinLocation

Past Weather in Kufstein — Graph

°F

Kufstein Temperature Yesterday

Maximum temperature yesterday: 70 °F (at 4:00 PM)
Minimum temperature yesterday: 46 °F (at 7:00 AM)
Average temperature yesterday: 56 °F

High & Low Weather Summary for the Past Weeks

 TemperatureHumidityPressure
High83 °F (Sep 15, 2:00 PM)98% (Sep 24, 7:00 AM)30.46 "Hg (Sep 24, 7:00 AM)
Low44 °F (Sep 23, 7:00 AM)33% (Sep 15, 3:00 PM)29.78 "Hg (Sep 15, 2:00 PM)
Average58 °F81%30.09 "Hg
* Reported Sep 13 5:00 PM — Sep 28 5:00 PM, Kufstein, Weather by CustomWeather, © 2016

Note: Actual official high and low records may vary slightly from our data, if they occured in-between our weather recording intervals... More about our weather records

Advertising

Kufstein Weather History for the Previous 24 Hours

Scroll right to see more
 ConditionsComfort  
Time TempWeatherWind HumidityBarometerVisibility
5:00 PM
Wed, Sep 28
70 °FMild.2 mph53%30.29 "HgN/A
4:00 PM70 °FMild.2 mph54%30.30 "HgN/A
3:00 PM69 °FMild.1 mph55%30.31 "HgN/A
2:00 PM67 °FMild.1 mph58%30.35 "HgN/A
1:00 PM65 °FMild.2 mph60%30.38 "HgN/A
12:00 PM61 °FCool.3 mph64%30.42 "HgN/A
11:00 AM60 °FCool.2 mph68%30.44 "HgN/A
10:00 AM54 °FCool.No wind83%30.46 "HgN/A
9:00 AM50 °FCool.1 mph90%30.46 "HgN/A
8:00 AM47 °FCool.1 mph93%30.46 "HgN/A
7:00 AM47 °FCool.1 mph95%30.46 "HgN/A
6:00 AM48 °FCool.No wind94%30.45 "HgN/A
5:00 AM49 °FCool.1 mph93%30.44 "HgN/A
4:00 AM50 °FCool.1 mph93%30.44 "HgN/A
3:00 AM49 °FCool.1 mph94%30.44 "HgN/A
2:00 AM50 °FCool.1 mph94%30.42 "HgN/A
1:00 AM51 °FCool.No wind94%30.42 "HgN/A
12:00 AM52 °FCool.1 mph92%30.42 "HgN/A
11:00 PM
Tue, Sep 27
53 °FCool.No wind90%30.41 "HgN/A
10:00 PM56 °FCool.No wind83%30.39 "HgN/A
9:00 PM58 °FCool.1 mph80%30.36 "HgN/A
8:00 PM60 °FCool.1 mph75%30.33 "HgN/A
7:00 PM64 °FMild.2 mph65%30.29 "HgN/A
Weather by CustomWeather, © 2016

See weather overviewHow to use our weather pages